000000,22.0031, 02 Nov 2015, 00:00:35
000030,22.0055, 02 Nov 2015, 00:01:05
000100,22.0087, 02 Nov 2015, 00:01:35
000130,22.0125, 02 Nov 2015, 00:02:04
000200,22.0181, 02 Nov 2015, 00:02:35
000230,22.0242, 02 Nov 2015, 00:03:05
000300,22.0307, 02 Nov 2015, 00:03:35
000330,22.0369, 02 Nov 2015, 00:04:05
000400,22.0437, 02 Nov 2015, 00:04:35
000430,22.0505, 02 Nov 2015, 00:05:04
000500,22.0577, 02 Nov 2015, 00:05:35
000530,22.0637, 02 Nov 2015, 00:06:05
000600,22.0702, 02 Nov 2015, 00:06:35
000630,22.0751, 02 Nov 2015, 00:07:05
000700,22.0784, 02 Nov 2015, 00:07:34
000730,22.0792, 02 Nov 2015, 00:08:05
000800,22.0779, 02 Nov 2015, 00:08:35
000830,22.0758, 02 Nov 2015, 00:09:05
000900,22.0723, 02 Nov 2015, 00:09:35
001000,22.0655, 02 Nov 2015, 00:10:35
001030,22.062, 02 Nov 2015, 00:11:06
001100,22.0596, 02 Nov 2015, 00:11:36
001130,22.0585, 02 Nov 2015, 00:12:05
001200,22.0576, 02 Nov 2015, 00:12:35
001230,22.0565, 02 Nov 2015, 00:13:05
001300,22.0575, 02 Nov 2015, 00:13:36
001330,22.0591, 02 Nov 2015, 00:14:06
001400,22.0616, 02 Nov 2015, 00:14:35
001430,22.0639, 02 Nov 2015, 00:15:05
001500,22.0657, 02 Nov 2015, 00:15:35
001530,22.0672, 02 Nov 2015, 00:16:06
001600,22.0692, 02 Nov 2015, 00:16:36
001700,22.0702, 02 Nov 2015, 00:17:35
001730,22.0703, 02 Nov 2015, 00:18:05
001800,22.0703, 02 Nov 2015, 00:18:36
001830,22.0709, 02 Nov 2015, 00:19:06
001930,22.0745, 02 Nov 2015, 00:20:05
002000,22.0769, 02 Nov 2015, 00:20:35
002030,22.0795, 02 Nov 2015, 00:21:06
002100,22.0822, 02 Nov 2015, 00:21:35
002130,22.0853, 02 Nov 2015, 00:22:05
002200,22.0896, 02 Nov 2015, 00:22:35
002230,22.0939, 02 Nov 2015, 00:23:05
002300,22.0972, 02 Nov 2015, 00:23:36
002330,22.0995, 02 Nov 2015, 00:24:05
002400,22.1012, 02 Nov 2015, 00:24:35
002430,22.1013, 02 Nov 2015, 00:25:05
002500,22.1005, 02 Nov 2015, 00:25:35
002530,22.0991, 02 Nov 2015, 00:26:06
002600,22.0976, 02 Nov 2015, 00:26:35
002630,22.0953, 02 Nov 2015, 00:27:05
002700,22.093, 02 Nov 2015, 00:27:35
002730,22.0916, 02 Nov 2015, 00:28:05
002800,22.0909, 02 Nov 2015, 00:28:36
002830,22.0919, 02 Nov 2015, 00:29:05
002900,22.0941, 02 Nov 2015, 00:29:35
002930,22.0973, 02 Nov 2015, 00:30:05
003000,22.1011, 02 Nov 2015, 00:30:35
003030,22.103, 02 Nov 2015, 00:31:05
003100,22.1061, 02 Nov 2015, 00:31:35
003130,22.1079, 02 Nov 2015, 00:32:05
003200,22.1093, 02 Nov 2015, 00:32:35
003230,22.107, 02 Nov 2015, 00:33:06
003300,22.1038, 02 Nov 2015, 00:33:35
003330,22.1, 02 Nov 2015, 00:34:05
003400,22.0954, 02 Nov 2015, 00:34:35
003430,22.0914, 02 Nov 2015, 00:35:05
003530,22.0854, 02 Nov 2015, 00:36:05
003600,22.0842, 02 Nov 2015, 00:36:35
003630,22.0844, 02 Nov 2015, 00:37:05
003700,22.0858, 02 Nov 2015, 00:37:35
003800,22.0877, 02 Nov 2015, 00:38:35
003830,22.0873, 02 Nov 2015, 00:39:05
003900,22.0874, 02 Nov 2015, 00:39:35
003930,22.0871, 02 Nov 2015, 00:40:05
004000,22.087, 02 Nov 2015, 00:40:35
004030,22.0854, 02 Nov 2015, 00:41:05
004100,22.0842, 02 Nov 2015, 00:41:35
004130,22.0822, 02 Nov 2015, 00:42:05
004200,22.0821, 02 Nov 2015, 00:42:34
004230,22.0806, 02 Nov 2015, 00:43:05
004300,22.0806, 02 Nov 2015, 00:43:35
004330,22.0785, 02 Nov 2015, 00:44:05
004400,22.0851, 02 Nov 2015, 00:44:35
004430,22.0885, 02 Nov 2015, 00:45:04
004500,22.0891, 02 Nov 2015, 00:45:35
004530,22.095, 02 Nov 2015, 00:46:05
004600,22.1112, 02 Nov 2015, 00:46:35
004630,22.1265, 02 Nov 2015, 00:47:05
004700,22.1287, 02 Nov 2015, 00:47:34
004730,22.1234, 02 Nov 2015, 00:48:05
004800,22.1161, 02 Nov 2015, 00:48:35
004830,22.1073, 02 Nov 2015, 00:49:05
004930,22.0952, 02 Nov 2015, 00:50:05
005000,22.0905, 02 Nov 2015, 00:50:36
005030,22.0866, 02 Nov 2015, 00:51:06
005100,22.0833, 02 Nov 2015, 00:51:35
005130,22.0792, 02 Nov 2015, 00:52:05
005200,22.0764, 02 Nov 2015, 00:52:36
005230,22.0739, 02 Nov 2015, 00:53:06
005300,22.0709, 02 Nov 2015, 00:53:36
005330,22.0693, 02 Nov 2015, 00:54:05
005400,22.0689, 02 Nov 2015, 00:54:35
005430,22.0677, 02 Nov 2015, 00:55:06
005500,22.0679, 02 Nov 2015, 00:55:36
005530,22.0696, 02 Nov 2015, 00:56:06
005600,22.0701, 02 Nov 2015, 00:56:35
005630,22.0687, 02 Nov 2015, 00:57:05
005700,22.0677, 02 Nov 2015, 00:57:36
005730,22.0732, 02 Nov 2015, 00:58:06
005800,22.087, 02 Nov 2015, 00:58:36
005830,22.0907, 02 Nov 2015, 00:59:05
005900,22.0893, 02 Nov 2015, 00:59:35
005930,22.0853, 02 Nov 2015, 01:00:06
010001,22.08, 02 Nov 2015, 01:00:36
010030,22.076, 02 Nov 2015, 01:01:05
010100,22.0733, 02 Nov 2015, 01:01:35
010130,22.0704, 02 Nov 2015, 01:02:05
010200,22.0664, 02 Nov 2015, 01:02:36
010230,22.0636, 02 Nov 2015, 01:03:06
010300,22.0618, 02 Nov 2015, 01:03:35
010330,22.0661, 02 Nov 2015, 01:04:05
010400,22.066, 02 Nov 2015, 01:04:35
010430,22.0656, 02 Nov 2015, 01:05:06
010500,22.0629, 02 Nov 2015, 01:05:36
010530,22.06, 02 Nov 2015, 01:06:05
010600,22.0577, 02 Nov 2015, 01:06:35
010630,22.0562, 02 Nov 2015, 01:07:05
010700,22.0554, 02 Nov 2015, 01:07:35
010730,22.0562, 02 Nov 2015, 01:08:06
010800,22.0555, 02 Nov 2015, 01:08:36
010830,22.0548, 02 Nov 2015, 01:09:05
010900,22.0544, 02 Nov 2015, 01:09:35
010930,22.053, 02 Nov 2015, 01:10:05
011000,22.0523, 02 Nov 2015, 01:10:36
011030,22.0521, 02 Nov 2015, 01:11:05
011100,22.051, 02 Nov 2015, 01:11:35
011130,22.0506, 02 Nov 2015, 01:12:05
011200,22.0495, 02 Nov 2015, 01:12:35
011230,22.0483, 02 Nov 2015, 01:13:06
011300,22.0468, 02 Nov 2015, 01:13:35
011330,22.0457, 02 Nov 2015, 01:14:05
011400,22.0443, 02 Nov 2015, 01:14:35
011430,22.0437, 02 Nov 2015, 01:15:05
011500,22.0424, 02 Nov 2015, 01:15:35
011530,22.0427, 02 Nov 2015, 01:16:05
011600,22.0444, 02 Nov 2015, 01:16:35
011630,22.0433, 02 Nov 2015, 01:17:05
011700,22.0421, 02 Nov 2015, 01:17:35
011730,22.0414, 02 Nov 2015, 01:18:05
011800,22.0414, 02 Nov 2015, 01:18:35
011830,22.0404, 02 Nov 2015, 01:19:05
011900,22.0409, 02 Nov 2015, 01:19:35
011930,22.0411, 02 Nov 2015, 01:20:05
012000,22.0417, 02 Nov 2015, 01:20:34
012030,22.0419, 02 Nov 2015, 01:21:05
012100,22.041, 02 Nov 2015, 01:21:35
012130,22.0403, 02 Nov 2015, 01:22:05
012200,22.0408, 02 Nov 2015, 01:22:35
012230,22.0402, 02 Nov 2015, 01:23:04
012300,22.0389, 02 Nov 2015, 01:23:35
012330,22.0403, 02 Nov 2015, 01:24:05
012400,22.0406, 02 Nov 2015, 01:24:35
012430,22.0397, 02 Nov 2015, 01:25:05
012500,22.039, 02 Nov 2015, 01:25:34
012530,22.0374, 02 Nov 2015, 01:26:05
012600,22.0363, 02 Nov 2015, 01:26:35
012630,22.0344, 02 Nov 2015, 01:27:05
012700,22.033, 02 Nov 2015, 01:27:35
012730,22.0322, 02 Nov 2015, 01:28:04
012800,22.0316, 02 Nov 2015, 01:28:35
012830,22.0301, 02 Nov 2015, 01:29:05
012900,22.0291, 02 Nov 2015, 01:29:35
012930,22.0282, 02 Nov 2015, 01:30:05
013000,22.0275, 02 Nov 2015, 01:30:35
013030,22.028, 02 Nov 2015, 01:31:06
013100,22.0256, 02 Nov 2015, 01:31:36
013130,22.024, 02 Nov 2015, 01:32:06
013200,22.0235, 02 Nov 2015, 01:32:35
013230,22.0238, 02 Nov 2015, 01:33:05
013300,22.0248, 02 Nov 2015, 01:33:36
013330,22.0252, 02 Nov 2015, 01:34:06
013400,22.0255, 02 Nov 2015, 01:34:36
013500,22.0241, 02 Nov 2015, 01:35:35
013530,22.0239, 02 Nov 2015, 01:36:05
013600,22.0231, 02 Nov 2015, 01:36:36
013630,22.023, 02 Nov 2015, 01:37:06
013700,22.023, 02 Nov 2015, 01:37:36
013730,22.0238, 02 Nov 2015, 01:38:05
013800,22.024, 02 Nov 2015, 01:38:35
013830,22.0223, 02 Nov 2015, 01:39:06
013900,22.0204, 02 Nov 2015, 01:39:36
013930,22.0198, 02 Nov 2015, 01:40:06
014000,22.019, 02 Nov 2015, 01:40:35
014030,22.0192, 02 Nov 2015, 01:41:05
014100,22.0181, 02 Nov 2015, 01:41:36
014130,22.0177, 02 Nov 2015, 01:42:06
014200,22.0176, 02 Nov 2015, 01:42:35
014230,22.0173, 02 Nov 2015, 01:43:05
014300,22.0187, 02 Nov 2015, 01:43:35
014330,22.0201, 02 Nov 2015, 01:44:06
014400,22.0223, 02 Nov 2015, 01:44:36
014430,22.024, 02 Nov 2015, 01:45:05
014500,22.0246, 02 Nov 2015, 01:45:35
014530,22.0246, 02 Nov 2015, 01:46:05
014600,22.0232, 02 Nov 2015, 01:46:36
014630,22.022, 02 Nov 2015, 01:47:06
014700,22.0213, 02 Nov 2015, 01:47:35
014730,22.0207, 02 Nov 2015, 01:48:05
014800,22.0208, 02 Nov 2015, 01:48:35
014830,22.0194, 02 Nov 2015, 01:49:06
014900,22.0172, 02 Nov 2015, 01:49:36
014930,22.0155, 02 Nov 2015, 01:50:05
015000,22.0149, 02 Nov 2015, 01:50:35
015030,22.0143, 02 Nov 2015, 01:51:05
015100,22.0138, 02 Nov 2015, 01:51:35
015130,22.014, 02 Nov 2015, 01:52:05
015200,22.0143, 02 Nov 2015, 01:52:35
015230,22.015, 02 Nov 2015, 01:53:05
015300,22.0155, 02 Nov 2015, 01:53:35
015330,22.0158, 02 Nov 2015, 01:54:05
015430,22.0162, 02 Nov 2015, 01:55:05
015500,22.0164, 02 Nov 2015, 01:55:35
015530,22.0164, 02 Nov 2015, 01:56:05
015600,22.016, 02 Nov 2015, 01:56:35
015630,22.0139, 02 Nov 2015, 01:57:06
015700,22.0131, 02 Nov 2015, 01:57:35
015730,22.0122, 02 Nov 2015, 01:58:05
015800,22.0113, 02 Nov 2015, 01:58:35
015830,22.0119, 02 Nov 2015, 01:59:05
015900,22.0115, 02 Nov 2015, 01:59:36
015930,22.0114, 02 Nov 2015, 02:00:05
020000,22.0114, 02 Nov 2015, 02:00:35
020030,22.011, 02 Nov 2015, 02:01:05
020100,22.0107, 02 Nov 2015, 02:01:35
020130,22.0118, 02 Nov 2015, 02:02:05
020200,22.0122, 02 Nov 2015, 02:02:35
020230,22.0147, 02 Nov 2015, 02:03:05
020300,22.0156, 02 Nov 2015, 02:03:35
020330,22.0176, 02 Nov 2015, 02:04:05
020400,22.0179, 02 Nov 2015, 02:04:35
020430,22.0174, 02 Nov 2015, 02:05:04
020500,22.0164, 02 Nov 2015, 02:05:35
020530,22.018, 02 Nov 2015, 02:06:05
020600,22.0193, 02 Nov 2015, 02:06:35
020630,22.0198, 02 Nov 2015, 02:07:05
020700,22.0197, 02 Nov 2015, 02:07:35
020730,22.0221, 02 Nov 2015, 02:08:04
020800,22.026, 02 Nov 2015, 02:08:35
020830,22.0293, 02 Nov 2015, 02:09:05
020900,22.0328, 02 Nov 2015, 02:09:35
020930,22.0362, 02 Nov 2015, 02:10:05
021000,22.0376, 02 Nov 2015, 02:10:34
021030,22.0395, 02 Nov 2015, 02:11:05
021100,22.0405, 02 Nov 2015, 02:11:35
021130,22.0416, 02 Nov 2015, 02:12:05
021230,22.0464, 02 Nov 2015, 02:13:04
021300,22.0493, 02 Nov 2015, 02:13:35
021330,22.05, 02 Nov 2015, 02:14:05
021400,22.0536, 02 Nov 2015, 02:14:35
021430,22.0556, 02 Nov 2015, 02:15:05
021500,22.0573, 02 Nov 2015, 02:15:34
021530,22.059, 02 Nov 2015, 02:16:04
021600,22.0602, 02 Nov 2015, 02:16:35
021630,22.0611, 02 Nov 2015, 02:17:05
021700,22.0623, 02 Nov 2015, 02:17:35
021730,22.0611, 02 Nov 2015, 02:18:04
021800,22.0601, 02 Nov 2015, 02:18:34
021830,22.0603, 02 Nov 2015, 02:19:05
021900,22.0598, 02 Nov 2015, 02:19:35
021930,22.0598, 02 Nov 2015, 02:20:05
022000,22.0605, 02 Nov 2015, 02:20:35
022030,22.0618, 02 Nov 2015, 02:21:06
022100,22.0632, 02 Nov 2015, 02:21:36
022200,22.0658, 02 Nov 2015, 02:22:35
022230,22.0677, 02 Nov 2015, 02:23:05
022300,22.069, 02 Nov 2015, 02:23:36
022330,22.0697, 02 Nov 2015, 02:24:06
022400,22.0691, 02 Nov 2015, 02:24:35
022430,22.069, 02 Nov 2015, 02:25:05
022500,22.0687, 02 Nov 2015, 02:25:35
022530,22.0696, 02 Nov 2015, 02:26:06
022600,22.0704, 02 Nov 2015, 02:26:36
022630,22.0702, 02 Nov 2015, 02:27:05
022700,22.0697, 02 Nov 2015, 02:27:35
022730,22.0701, 02 Nov 2015, 02:28:05
022800,22.0699, 02 Nov 2015, 02:28:36
022830,22.0699, 02 Nov 2015, 02:29:06
022900,22.0699, 02 Nov 2015, 02:29:35
022930,22.0715, 02 Nov 2015, 02:30:05
023000,22.0729, 02 Nov 2015, 02:30:35
023030,22.0744, 02 Nov 2015, 02:31:06
023100,22.0763, 02 Nov 2015, 02:31:35
023130,22.0785, 02 Nov 2015, 02:32:05
023200,22.0784, 02 Nov 2015, 02:32:35
023230,22.0781, 02 Nov 2015, 02:33:05
023300,22.0792, 02 Nov 2015, 02:33:36
023330,22.0798, 02 Nov 2015, 02:34:05
023400,22.0806, 02 Nov 2015, 02:34:35
023430,22.0795, 02 Nov 2015, 02:35:05
023500,22.0799, 02 Nov 2015, 02:35:35
023530,22.08, 02 Nov 2015, 02:36:06
023600,22.0804, 02 Nov 2015, 02:36:35
023630,22.0815, 02 Nov 2015, 02:37:05
023700,22.0811, 02 Nov 2015, 02:37:35
023730,22.0798, 02 Nov 2015, 02:38:05
023800,22.0787, 02 Nov 2015, 02:38:36
023830,22.0781, 02 Nov 2015, 02:39:05
023900,22.0768, 02 Nov 2015, 02:39:35
023930,22.0773, 02 Nov 2015, 02:40:05
024000,22.0769, 02 Nov 2015, 02:40:34
024030,22.0772, 02 Nov 2015, 02:41:05
024100,22.0768, 02 Nov 2015, 02:41:35
024130,22.0755, 02 Nov 2015, 02:42:05
024200,22.0742, 02 Nov 2015, 02:42:35
024230,22.0731, 02 Nov 2015, 02:43:04
024300,22.0717, 02 Nov 2015, 02:43:35
024330,22.0718, 02 Nov 2015, 02:44:05
024400,22.0712, 02 Nov 2015, 02:44:35
024430,22.0724, 02 Nov 2015, 02:45:05
024500,22.0725, 02 Nov 2015, 02:45:34
024530,22.072, 02 Nov 2015, 02:46:05
024600,22.0712, 02 Nov 2015, 02:46:35
024630,22.0708, 02 Nov 2015, 02:47:05
024700,22.0685, 02 Nov 2015, 02:47:35
024730,22.0663, 02 Nov 2015, 02:48:05
024800,22.0634, 02 Nov 2015, 02:48:35
024830,22.0605, 02 Nov 2015, 02:49:05
024900,22.0571, 02 Nov 2015, 02:49:35
024930,22.0544, 02 Nov 2015, 02:50:05
025000,22.0522, 02 Nov 2015, 02:50:35
025030,22.0495, 02 Nov 2015, 02:51:05
025100,22.0475, 02 Nov 2015, 02:51:35
025200,22.0435, 02 Nov 2015, 02:52:34
025230,22.0419, 02 Nov 2015, 02:53:05
025300,22.0399, 02 Nov 2015, 02:53:35
025330,22.0382, 02 Nov 2015, 02:54:05
025430,22.0382, 02 Nov 2015, 02:55:04
025500,22.0376, 02 Nov 2015, 02:55:35
025530,22.0347, 02 Nov 2015, 02:56:05
025600,22.0312, 02 Nov 2015, 02:56:35
025700,22.024, 02 Nov 2015, 02:57:34
025730,22.0188, 02 Nov 2015, 02:58:05
025800,22.0132, 02 Nov 2015, 02:58:35
025830,22.0097, 02 Nov 2015, 02:59:05
025900,22.0067, 02 Nov 2015, 02:59:35
025930,22.0028, 02 Nov 2015, 03:00:04
030000,21.9988, 02 Nov 2015, 03:00:35
030030,21.9952, 02 Nov 2015, 03:01:06
030130,21.9879, 02 Nov 2015, 03:02:05
030200,21.985, 02 Nov 2015, 03:02:35
030230,21.9824, 02 Nov 2015, 03:03:06
030300,21.9803, 02 Nov 2015, 03:03:36
030330,21.9815, 02 Nov 2015, 03:04:05
030400,21.9833, 02 Nov 2015, 03:04:35
030430,21.9875, 02 Nov 2015, 03:05:05
030500,21.9915, 02 Nov 2015, 03:05:36
030530,21.996, 02 Nov 2015, 03:06:06
030600,21.9993, 02 Nov 2015, 03:06:35
030630,22.0018, 02 Nov 2015, 03:07:05
030700,22.0013, 02 Nov 2015, 03:07:35
030730,21.9993, 02 Nov 2015, 03:08:06
030800,21.9953, 02 Nov 2015, 03:08:36
030830,21.9895, 02 Nov 2015, 03:09:05
030900,21.9833, 02 Nov 2015, 03:09:35
030930,21.9767, 02 Nov 2015, 03:10:05
031000,21.9706, 02 Nov 2015, 03:10:35
031030,21.9649, 02 Nov 2015, 03:11:05
031100,21.9606, 02 Nov 2015, 03:11:35
031130,21.9568, 02 Nov 2015, 03:12:05
031200,21.9531, 02 Nov 2015, 03:12:36
031230,21.9503, 02 Nov 2015, 03:13:05
031300,21.9472, 02 Nov 2015, 03:13:35
031330,21.9435, 02 Nov 2015, 03:14:05
031400,21.9384, 02 Nov 2015, 03:14:36
031430,21.9342, 02 Nov 2015, 03:15:05
031500,21.9297, 02 Nov 2015, 03:15:35
031530,21.9247, 02 Nov 2015, 03:16:05
031600,21.9184, 02 Nov 2015, 03:16:36
031630,21.9108, 02 Nov 2015, 03:17:05
031700,21.9022, 02 Nov 2015, 03:17:35
031730,21.8936, 02 Nov 2015, 03:18:05
031800,21.8847, 02 Nov 2015, 03:18:35
031900,21.8675, 02 Nov 2015, 03:19:35
031930,21.8585, 02 Nov 2015, 03:20:05
032000,21.8494, 02 Nov 2015, 03:20:35
032030,21.8404, 02 Nov 2015, 03:21:05
032100,21.8309, 02 Nov 2015, 03:21:35
032130,21.8215, 02 Nov 2015, 03:22:05
032200,21.8123, 02 Nov 2015, 03:22:35
032230,21.8032, 02 Nov 2015, 03:23:05
032300,21.7941, 02 Nov 2015, 03:23:35
032330,21.7842, 02 Nov 2015, 03:24:05
032400,21.7754, 02 Nov 2015, 03:24:35
032430,21.7649, 02 Nov 2015, 03:25:04
032500,21.7513, 02 Nov 2015, 03:25:35
032530,21.7382, 02 Nov 2015, 03:26:05
032600,21.7245, 02 Nov 2015, 03:26:35
032630,21.7133, 02 Nov 2015, 03:27:05
032700,21.7067, 02 Nov 2015, 03:27:35
032730,21.705, 02 Nov 2015, 03:28:05
032800,21.7071, 02 Nov 2015, 03:28:35
032830,21.7136, 02 Nov 2015, 03:29:05
032900,21.7215, 02 Nov 2015, 03:29:35
032930,21.7309, 02 Nov 2015, 03:30:05
033000,21.7388, 02 Nov 2015, 03:30:35
033030,21.744, 02 Nov 2015, 03:31:04
033100,21.7459, 02 Nov 2015, 03:31:34
033130,21.7443, 02 Nov 2015, 03:32:05
033200,21.7455, 02 Nov 2015, 03:32:35
033230,21.7523, 02 Nov 2015, 03:33:05
033300,21.764, 02 Nov 2015, 03:33:34
033330,21.7799, 02 Nov 2015, 03:34:05
033400,21.7964, 02 Nov 2015, 03:34:35
033430,21.8127, 02 Nov 2015, 03:35:05
033500,21.8267, 02 Nov 2015, 03:35:34
033530,21.8411, 02 Nov 2015, 03:36:05
033600,21.8528, 02 Nov 2015, 03:36:35
033630,21.8627, 02 Nov 2015, 03:37:05
033700,21.8675, 02 Nov 2015, 03:37:34
033730,21.8679, 02 Nov 2015, 03:38:04
033800,21.8644, 02 Nov 2015, 03:38:35
033830,21.8595, 02 Nov 2015, 03:39:05
033930,21.8558, 02 Nov 2015, 03:40:04
034000,21.8554, 02 Nov 2015, 03:40:36
034100,21.8474, 02 Nov 2015, 03:41:35
034130,21.8364, 02 Nov 2015, 03:42:05
034200,21.8199, 02 Nov 2015, 03:42:36
034230,21.7974, 02 Nov 2015, 03:43:06
034300,21.7674, 02 Nov 2015, 03:43:35
034330,21.7276, 02 Nov 2015, 03:44:05
034400,21.6817, 02 Nov 2015, 03:44:36
034430,21.6353, 02 Nov 2015, 03:45:06
034500,21.5903, 02 Nov 2015, 03:45:35
034530,21.542, 02 Nov 2015, 03:46:05
034600,21.4947, 02 Nov 2015, 03:46:36
034630,21.4493, 02 Nov 2015, 03:47:06
034700,21.4129, 02 Nov 2015, 03:47:35
034730,21.3809, 02 Nov 2015, 03:48:05
034800,21.3559, 02 Nov 2015, 03:48:35
034830,21.337, 02 Nov 2015, 03:49:06
034900,21.3218, 02 Nov 2015, 03:49:36
034930,21.3117, 02 Nov 2015, 03:50:05
035000,21.3042, 02 Nov 2015, 03:50:35
035030,21.3, 02 Nov 2015, 03:51:06
035100,21.2985, 02 Nov 2015, 03:51:35
035130,21.3015, 02 Nov 2015, 03:52:05
035200,21.3071, 02 Nov 2015, 03:52:35
035230,21.3156, 02 Nov 2015, 03:53:05
035300,21.3266, 02 Nov 2015, 03:53:36
035330,21.3381, 02 Nov 2015, 03:54:05
035400,21.3514, 02 Nov 2015, 03:54:35
035430,21.3638, 02 Nov 2015, 03:55:05
035500,21.3747, 02 Nov 2015, 03:55:36
035530,21.3836, 02 Nov 2015, 03:56:05
035600,21.3901, 02 Nov 2015, 03:56:35
035630,21.3947, 02 Nov 2015, 03:57:05
035700,21.3952, 02 Nov 2015, 03:57:35
035730,21.3901, 02 Nov 2015, 03:58:06
035800,21.3841, 02 Nov 2015, 03:58:35
035830,21.3795, 02 Nov 2015, 03:59:05
035900,21.3787, 02 Nov 2015, 03:59:35
035930,21.3803, 02 Nov 2015, 04:00:06
040000,21.3887, 02 Nov 2015, 04:00:35
040030,21.4038, 02 Nov 2015, 04:01:05
040100,21.4228, 02 Nov 2015, 04:01:35
040130,21.448, 02 Nov 2015, 04:02:05
040200,21.4774, 02 Nov 2015, 04:02:35
040230,21.5157, 02 Nov 2015, 04:03:05
040300,21.5552, 02 Nov 2015, 04:03:35
040330,21.5943, 02 Nov 2015, 04:04:05
040400,21.6309, 02 Nov 2015, 04:04:35
040430,21.6641, 02 Nov 2015, 04:05:05
040500,21.6979, 02 Nov 2015, 04:05:35
040530,21.7291, 02 Nov 2015, 04:06:05
040600,21.7581, 02 Nov 2015, 04:06:35
040630,21.7832, 02 Nov 2015, 04:07:04
040700,21.8081, 02 Nov 2015, 04:07:35
040730,21.8306, 02 Nov 2015, 04:08:05
040800,21.8522, 02 Nov 2015, 04:08:35
040830,21.8723, 02 Nov 2015, 04:09:05
040900,21.891, 02 Nov 2015, 04:09:35
040930,21.9079, 02 Nov 2015, 04:10:05
041000,21.9263, 02 Nov 2015, 04:10:35
041030,21.9452, 02 Nov 2015, 04:11:04
041100,21.964, 02 Nov 2015, 04:11:35
041130,21.98, 02 Nov 2015, 04:12:05
041200,21.9949, 02 Nov 2015, 04:12:35
041230,22.0072, 02 Nov 2015, 04:13:05
041300,22.018, 02 Nov 2015, 04:13:34
041330,22.0281, 02 Nov 2015, 04:14:05
041400,22.0364, 02 Nov 2015, 04:14:35
041430,22.0432, 02 Nov 2015, 04:15:05
041500,22.046, 02 Nov 2015, 04:15:35
041530,22.0474, 02 Nov 2015, 04:16:04
041600,22.0464, 02 Nov 2015, 04:16:35
041630,22.0433, 02 Nov 2015, 04:17:05
041700,22.0381, 02 Nov 2015, 04:17:35
041730,22.0309, 02 Nov 2015, 04:18:05
041800,22.0226, 02 Nov 2015, 04:18:34
041830,22.015, 02 Nov 2015, 04:19:04
041900,22.0074, 02 Nov 2015, 04:19:35
041930,22.0014, 02 Nov 2015, 04:20:05
042000,21.9956, 02 Nov 2015, 04:20:35
042030,21.9904, 02 Nov 2015, 04:21:05
042100,21.9868, 02 Nov 2015, 04:21:36
042130,21.9841, 02 Nov 2015, 04:22:06
042200,21.9837, 02 Nov 2015, 04:22:35
042230,21.9843, 02 Nov 2015, 04:23:05
042300,21.9859, 02 Nov 2015, 04:23:36
042330,21.9899, 02 Nov 2015, 04:24:06
042400,21.9935, 02 Nov 2015, 04:24:35
042430,21.9991, 02 Nov 2015, 04:25:05
042500,22.005, 02 Nov 2015, 04:25:35
042530,22.0104, 02 Nov 2015, 04:26:06
042600,22.0169, 02 Nov 2015, 04:26:36
042700,22.0316, 02 Nov 2015, 04:27:35
042730,22.0391, 02 Nov 2015, 04:28:05
042800,22.0444, 02 Nov 2015, 04:28:36
042830,22.0486, 02 Nov 2015, 04:29:06
042930,22.05, 02 Nov 2015, 04:30:05
043000,22.0503, 02 Nov 2015, 04:30:35
043030,22.0478, 02 Nov 2015, 04:31:06
043100,22.0453, 02 Nov 2015, 04:31:35
043130,22.0422, 02 Nov 2015, 04:32:05
043200,22.0392, 02 Nov 2015, 04:32:35
043230,22.0365, 02 Nov 2015, 04:33:05
043300,22.0325, 02 Nov 2015, 04:33:36
043330,22.0294, 02 Nov 2015, 04:34:05
043400,22.0263, 02 Nov 2015, 04:34:35
043430,22.0226, 02 Nov 2015, 04:35:05
043500,22.0198, 02 Nov 2015, 04:35:35
043530,22.0169, 02 Nov 2015, 04:36:06
043630,22.0146, 02 Nov 2015, 04:37:05
043700,22.0122, 02 Nov 2015, 04:37:35
043730,22.0116, 02 Nov 2015, 04:38:05
043800,22.0101, 02 Nov 2015, 04:38:36
043830,22.0084, 02 Nov 2015, 04:39:06
043900,22.0072, 02 Nov 2015, 04:39:35
043930,22.0041, 02 Nov 2015, 04:40:05
044000,22.0027, 02 Nov 2015, 04:40:35
044030,22.0006, 02 Nov 2015, 04:41:05
044100,21.9978, 02 Nov 2015, 04:41:35
044130,21.9937, 02 Nov 2015, 04:42:05
044200,21.9897, 02 Nov 2015, 04:42:35
044230,21.985, 02 Nov 2015, 04:43:05
044300,21.9816, 02 Nov 2015, 04:43:35
044330,21.9786, 02 Nov 2015, 04:44:05
044400,21.9774, 02 Nov 2015, 04:44:35
044430,21.9763, 02 Nov 2015, 04:45:05
044500,21.9758, 02 Nov 2015, 04:45:35
044530,21.9756, 02 Nov 2015, 04:46:05
044600,21.9754, 02 Nov 2015, 04:46:35
044630,21.9754, 02 Nov 2015, 04:47:05
044730,21.9712, 02 Nov 2015, 04:48:05
044800,21.9692, 02 Nov 2015, 04:48:35
044830,21.9669, 02 Nov 2015, 04:49:05
044900,21.9646, 02 Nov 2015, 04:49:35
044930,21.9618, 02 Nov 2015, 04:50:05
045000,21.9623, 02 Nov 2015, 04:50:35
045030,21.972, 02 Nov 2015, 04:51:05
045100,21.9885, 02 Nov 2015, 04:51:34
045130,22.0066, 02 Nov 2015, 04:52:05
045200,22.0171, 02 Nov 2015, 04:52:35
045230,22.0187, 02 Nov 2015, 04:53:05
045300,22.0146, 02 Nov 2015, 04:53:35
045330,22.0084, 02 Nov 2015, 04:54:04
045400,22.0015, 02 Nov 2015, 04:54:35
045430,22.0005, 02 Nov 2015, 04:55:05
045500,22.0093, 02 Nov 2015, 04:55:35
045530,22.0197, 02 Nov 2015, 04:56:05
045600,22.0266, 02 Nov 2015, 04:56:34
045630,22.0227, 02 Nov 2015, 04:57:05
045700,22.0189, 02 Nov 2015, 04:57:35
045730,22.0175, 02 Nov 2015, 04:58:05
045800,22.019, 02 Nov 2015, 04:58:35
045830,22.0207, 02 Nov 2015, 04:59:04
045900,22.0289, 02 Nov 2015, 04:59:35
045930,22.0353, 02 Nov 2015, 05:00:05
050000,22.0326, 02 Nov 2015, 05:00:35
050030,22.0256, 02 Nov 2015, 05:01:05
050100,22.0182, 02 Nov 2015, 05:01:35
050130,22.0127, 02 Nov 2015, 05:02:05
050200,22.0135, 02 Nov 2015, 05:02:36
050230,22.0111, 02 Nov 2015, 05:03:06
050330,22.0181, 02 Nov 2015, 05:04:05
050400,22.0289, 02 Nov 2015, 05:04:35
050430,22.0327, 02 Nov 2015, 05:05:06
050500,22.0312, 02 Nov 2015, 05:05:36
050530,22.0258, 02 Nov 2015, 05:06:06
050600,22.0188, 02 Nov 2015, 05:06:35
050630,22.0105, 02 Nov 2015, 05:07:05
050700,22.0034, 02 Nov 2015, 05:07:35
050730,21.9971, 02 Nov 2015, 05:08:06
050800,21.9928, 02 Nov 2015, 05:08:36
050830,21.9901, 02 Nov 2015, 05:09:05
050900,21.989, 02 Nov 2015, 05:09:35
050930,21.9857, 02 Nov 2015, 05:10:06
051000,21.9809, 02 Nov 2015, 05:10:36
051030,21.9769, 02 Nov 2015, 05:11:05
051100,21.9759, 02 Nov 2015, 05:11:35
051130,21.9788, 02 Nov 2015, 05:12:05
051200,21.9802, 02 Nov 2015, 05:12:36
051230,21.9823, 02 Nov 2015, 05:13:05
051300,21.9842, 02 Nov 2015, 05:13:35
051330,21.986, 02 Nov 2015, 05:14:05
051400,21.9847, 02 Nov 2015, 05:14:36
051430,21.9807, 02 Nov 2015, 05:15:05
051500,21.9759, 02 Nov 2015, 05:15:35
051530,21.9738, 02 Nov 2015, 05:16:05
051600,21.9772, 02 Nov 2015, 05:16:36
051700,21.996, 02 Nov 2015, 05:17:35
051730,22.0047, 02 Nov 2015, 05:18:05
051800,22.0065, 02 Nov 2015, 05:18:35
051830,22.0051, 02 Nov 2015, 05:19:06
051900,22.0028, 02 Nov 2015, 05:19:36
051930,21.998, 02 Nov 2015, 05:20:05